This is the latest recevied weather packets stored in our database for station/object YT1XN-8. If no packets are shown the sender has not sent any weather packets the latest 10 day(s).
| Time | Temp. | Humidity | Pressure | Rain* | Wind** | Luminosity | Snow |
|---|---|---|---|---|---|---|---|
| 1777813421 | 18.89° C | 44% | 1020.8 hPa | 0 mm | - | - | - |
| 1777813242 | 18.89° C | 42% | 1020.8 hPa | 0 mm | - | - | - |
| 1777812761 | 18.89° C | 44% | 1021 hPa | 0 mm | - | - | - |
| 1777812645 | 18.89° C | 43% | 1021 hPa | 0 mm | - | - | - |
| 1777812101 | 18.89° C | 43% | 1021.1 hPa | 0 mm | - | - | - |
| 1777812042 | 18.89° C | 42% | 1021.1 hPa | 0 mm | - | - | - |
| 1777811441 | 18.89° C | 44% | 1021.1 hPa | 0 mm | - | - | - |
| 1777810844 | 18.89° C | 43% | 1021.2 hPa | 0 mm | - | - | - |
| 1777810781 | 18.89° C | 44% | 1021.2 hPa | 0 mm | - | - | - |
| 1777810242 | 18.89° C | 43% | 1021.4 hPa | 0 mm | - | - | - |
| 1777810121 | 18.89° C | 45% | 1021.4 hPa | 0 mm | - | - | - |
| 1777809642 | 19.44° C | 43% | 1021.4 hPa | 0 mm | - | - | - |
| 1777809461 | 19.44° C | 43% | 1021.3 hPa | 0 mm | - | - | - |
| 1777809042 | 18.89° C | 45% | 1021.4 hPa | 0 mm | - | - | - |
| 1777808801 | 18.89° C | 43% | 1021.4 hPa | 0 mm | - | - | - |
| 1777808442 | 18.89° C | 43% | 1021.4 hPa | 0 mm | - | - | - |
| 1777808141 | 19.44° C | 45% | 1021.5 hPa | 0 mm | - | - | - |
| 1777807842 | 18.89° C | 51% | 1021.4 hPa | 0 mm | - | - | - |
| 1777807481 | 18.33° C | 44% | 1021.5 hPa | 0 mm | - | - | - |
| 1777807242 | 18.89° C | 46% | 1021.6 hPa | 0 mm | - | - | - |
| 1777806821 | 18.33° C | 48% | 1021.6 hPa | 0 mm | - | - | - |
| 1777806642 | 18.89° C | 47% | 1021.6 hPa | 0 mm | - | - | - |
| 1777806161 | 18.33° C | 49% | 1021.7 hPa | 0 mm | - | - | - |
| 1777806042 | 18.33° C | 48% | 1021.8 hPa | 0 mm | - | - | - |
| 1777805501 | 18.33° C | 47% | 1021.8 hPa | 0 mm | - | - | - |
* Rain latest hour (hover to see other rain measurements)
** Current wind speed in m/s (hover to see current wind gust speed)